Terminal Aerodrome Forecast
Issued by NWS Lake Charles, LA

Home | Current Version | Previous Version | Text Only | Print | Product List | Glossary On
Versions: 1 2 3 4 5 6 7 8 9 10 11 12 13 14 15 16 17 18 19 20 21 22 23 24 25 26 27 28
000
FTUS44 KLCH 212326
TAFLCH
TAF
KLCH 212326Z 2200/2224 29006KT P6SM FEW050
     FM220600 33004KT 4SM BR SCT008
      TEMPO 2208/2212 1SM BR BKN003
     FM221500 36006KT P6SM SCT020=

USA.gov is the U.S. government's official web portal to all federal, state and local government web resources and services.